Wind_Speed
20 17 18 19 18 18 18 13 11 15 15 17 18 20 19 20 23 25 22 20 13 17 5 10 16 10 12 10 11 14 17 21 16 19 16 14 16 21 24 29 24 24 24 27 25 22 26 32 27
18 19 18 18 14 19 19 16 18 20 22 19 18 19 18 20 21 27 25 27 26 22 22 18 16 15 10 9 11 11 16 17 15 18 15 15 15 19 20 29 31 33 32 23 27 25 24 26 29
21 18 18 19 25 22 24 24 25 25 26 27 25 25 21 19 21 23 26 29 32 32 29 22 19 17 4 10 8 16 12 10 11 16 16 12 12 14 22 25 27 28 32 26 24 24 21 29 26
22 20 20 20 22 24 27 29 30 27 26 28 30 30 31 29 30 31 27 25 31 30 30 21 19 15 14 7 4 10 11 2 9 17 21 9 8 14 18 21 27 23 32 30 24 26 20 18 22
18 21 22 23 23 25 26 27 27 26 28 32 35 38 39 40 38 32 32 31 28 23 25 25 16 14 14 6 6 4 11 6 10 18 21 12 8 9 16 21 29 25 33 31 28 29 23 19 17
11 19 23 26 26 27 28 29 28 30 32 35 37 38 39 38 37 36 33 31 32 31 31 21 24 17 8 12 12 9 5 9 12 17 19 8 8 22 21 24 23 24 26 25 27 27 29 19 16
23 6 24 26 26 27 27 27 29 34 36 35 31 31 34 36 38 36 34 30 32 32 28 24 15 27 30 16 14 17 10 6 12 13 15 11 8 18 21 19 20 21 18 20 24 24 27 24 14
23 30 18 26 24 23 27 27 31 35 36 25 30 34 39 42 41 39 35 29 29 31 29 35 22 19 31 9 5 5 6 8 9 12 14 11 5 16 13 18 18 20 20 15 18 25 27 26 24
13 18 21 22 25 28 29 31 33 34 35 33 41 43 41 37 38 39 38 32 30 29 29 31 15 15 11 13 7 4 5 5 3 8 10 4 7 14 16 8 14 17 14 17 11 24 27 25 28
8 20 23 24 26 29 29 31 33 34 38 38 43 44 37 32 32 36 39 33 29 30 29 29 22 19 15 8 7 7 6 5 1 5 7 5 10 11 14 6 5 10 8 12 15 19 21 24 26
17 23 26 27 25 29 29 30 30 35 37 37 38 38 30 25 29 31 38 29 32 33 33 33 28 23 21 12 10 9 10 6 5 5 11 6 9 4 3 5 6 8 11 14 16 13 16 24 24
21 23 30 30 25 28 30 31 32 33 37 38 41 30 18 7 19 31 38 46 33 34 39 37 29 21 18 15 19 12 11 8 9 4 9 9 1 5 9 8 12 14 13 12 12 9 15 20 22
18 22 20 22 21 24 30 29 35 37 39 38 37 22 17 4 16 23 33 39 36 34 41 34 34 24 26 22 16 11 10 11 9 6 5 8 13 18 2 9 11 13 13 8 11 16 21 18 18
22 24 24 19 16 21 24 31 27 28 36 38 31 18 12 7 12 23 31 37 38 37 38 39 37 24 23 21 18 14 15 14 12 10 1 5 5 8 11 2 6 13 12 7 10 14 18 20 15
22 25 25 19 17 9 11 14 28 32 32 37 25 16 12 5 11 22 30 35 35 39 41 27 23 25 30 24 22 17 19 13 8 11 2 9 5 10 9 10 5 7 9 8 8 14 20 20 17
14 18 22 21 18 15 16 18 25 30 30 33 22 15 12 8 11 18 24 32 34 42 41 21 22 25 27 25 24 20 19 13 5 7 11 15 13 11 14 12 8 8 13 12 12 15 17 21 19
8 17 21 20 19 13 12 17 24 21 28 29 20 12 12 10 10 17 26 31 36 46 34 23 26 27 24 27 24 17 20 16 8 3 10 15 18 16 15 16 13 11 11 12 12 13 17 19 19
21 18 15 21 19 17 15 23 14 23 25 28 14 9 8 8 11 18 25 31 39 39 21 17 24 28 22 24 25 22 15 8 11 14 18 6 13 18 16 14 14 18 22 16 13 16 17 15 18
36 32 30 17 20 19 19 14 9 15 22 25 13 5 6 4 9 16 23 31 36 33 24 24 25 26 24 28 26 24 20 14 13 16 20 21 15 15 16 14 14 21 21 16 17 14 14 15 18
18 30 29 15 14 16 14 11 8 10 11 18 18 4 3 6 8 13 22 36 33 28 28 25 26 28 28 28 26 27 24 21 22 19 21 21 21 14 17 15 13 19 20 18 15 16 17 13 18
36 30 20 13 11 5 6 11 17 10 9 11 15 8 4 7 9 11 19 28 38 33 24 27 25 24 26 28 25 23 22 26 20 21 27 18 17 18 20 19 17 18 20 17 16 16 15 15 18
27 24 23 9 9 7 3 10 10 12 4 6 11 10 1 4 8 12 22 30 40 38 25 37 27 25 25 27 28 29 21 23 21 22 22 27 27 25 26 22 18 14 19 20 19 15 14 15 15
32 28 26 12 9 4 6 12 8 15 2 1 5 9 11 2 8 8 12 20 34 38 36 33 32 35 32 30 25 28 28 30 28 23 24 22 28 34 30 25 18 14 15 19 19 15 18 17 17
34 32 20 12 13 16 16 11 12 11 9 3 2 5 6 8 7 4 15 15 18 24 35 39 35 28 32 31 31 28 27 21 22 23 24 20 14 26 29 26 18 15 15 19 20 18 18 17 14
30 36 24 25 16 15 11 30 26 10 23 8 6 3 6 4 4 10 5 2 17 23 23 27 36 35 34 31 29 29 26 27 28 26 24 27 29 31 26 27 22 18 17 17 20 20 19 15 12
34 29 14 20 23 29 21 11 29 31 27 19 12 8 2 11 8 8 5 4 9 9 15 26 29 30 30 31 33 33 32 32 33 35 36 36 34 19 5 38 26 22 20 17 21 19 20 17 16
40 42 21 29 35 35 30 33 19 30 34 24 16 7 15 28 19 16 18 9 3 4 3 3 12 20 24 30 36 39 41 40 38 38 40 37 29 24 19 16 22 23 22 18 15 17 18 19 19
46 44 32 34 36 39 39 31 10 18 28 35 23 18 19 22 12 22 15 15 9 5 10 6 5 8 13 15 19 25 30 33 34 33 34 34 28 27 34 16 19 24 21 16 15 18 20 22 22
54 50 42 39 43 44 50 49 33 20 28 33 25 19 24 23 24 29 24 20 14 11 10 6 9 8 8 10 11 13 18 22 23 20 20 21 22 22 25 28 19 18 19 16 17 20 22 23 23
28 43 50 49 44 42 42 49 48 43 36 33 29 23 25 25 28 24 26 23 20 17 14 12 10 11 12 11 11 9 9 12 13 12 12 14 17 17 17 18 19 20 17 15 18 19 19 15 12
Wind_Direction
211 218 227 231 238 245 248 247 276 299 307 287 287 278 271 252 240 234 230 239 251 226 246 283 299 338 350 351 344 5 358 352 21 34 44 53 59 51 58 47 46 25 24 36 50 37 47 45 37
215 224 229 233 244 240 239 254 280 284 281 282 285 287 290 258 236 235 227 234 217 219 241 265 286 309 331 0 2 359 351 11 37 35 53 66 66 48 53 46 43 38 44 38 37 37 42 40 38
214 223 232 241 237 248 244 255 278 278 274 273 278 280 280 279 253 242 239 233 236 243 257 276 289 303 294 337 306 329 336 352 13 38 54 71 71 50 56 51 42 37 46 52 41 45 25 34 34
225 229 237 238 247 252 250 264 278 289 291 282 278 279 284 286 285 266 249 238 237 249 257 267 295 299 286 282 310 308 284 18 35 40 31 50 97 65 61 44 34 37 43 45 47 51 45 26 30
233 249 257 247 252 256 258 269 282 290 292 288 282 282 284 284 283 272 256 242 238 236 256 250 248 263 256 278 212 249 305 96 49 34 29 50 91 77 52 36 31 32 22 50 38 34 44 37 24
249 271 271 262 264 267 274 285 282 285 290 290 286 285 283 279 274 267 254 248 240 232 231 230 218 217 221 242 265 277 250 68 25 36 43 62 77 57 48 32 14 17 15 43 38 41 29 34 29
210 250 224 271 279 276 277 282 289 289 290 292 296 297 286 277 270 261 253 244 232 228 231 208 218 230 237 242 238 257 256 3 20 44 45 31 63 49 40 33 19 34 13 2 14 27 25 26 24
241 272 288 272 276 275 278 287 290 294 293 294 301 303 289 271 261 253 245 237 228 221 220 217 219 231 228 243 219 268 275 272 16 53 35 25 99 53 50 26 24 23 14 352 0 19 27 21 21
230 245 256 266 266 276 284 288 290 297 287 284 296 294 298 269 255 244 236 230 220 215 213 217 205 214 209 216 204 242 271 203 40 49 39 51 104 64 17 349 328 2 23 8 15 1 19 18 21
316 278 275 277 279 284 290 291 297 296 291 290 300 307 295 268 245 232 225 221 214 209 203 200 199 186 193 207 244 238 232 230 211 77 64 79 112 332 345 26 3 323 2 7 3 354 13 14 23
241 267 266 271 283 288 290 296 307 301 300 307 316 319 297 268 241 219 212 193 215 202 193 182 200 191 196 214 231 235 222 197 186 103 65 103 158 89 86 54 38 327 335 351 10 12 20 21 19
230 259 265 269 278 286 293 301 309 309 316 322 330 323 320 235 200 198 197 201 196 187 186 189 179 181 191 200 230 249 201 206 181 169 61 75 53 30 23 321 311 309 330 348 15 13 23 16 14
252 261 270 269 276 286 296 303 311 310 326 335 337 337 357 25 174 180 188 189 183 182 191 177 174 184 191 218 218 208 210 204 201 196 76 69 75 272 88 27 332 325 300 342 17 14 351 3 9
266 267 271 274 286 302 305 320 311 326 336 343 339 354 14 93 163 174 179 184 185 185 183 176 186 201 210 197 204 210 210 211 211 200 86 8 311 305 213 178 309 304 297 316 1 8 19 355 353
269 265 276 279 272 320 273 294 319 340 341 344 344 12 35 77 151 169 175 181 187 182 178 164 180 199 195 207 214 223 209 204 203 194 350 321 305 308 290 214 254 311 301 309 329 343 355 356 3
273 261 261 260 257 250 279 284 315 335 346 343 345 16 37 90 136 160 173 177 179 177 181 176 180 185 185 203 213 216 201 212 233 254 266 312 291 305 279 279 270 307 287 275 299 329 348 359 358
226 172 234 253 257 253 304 280 324 343 351 344 342 25 34 75 140 161 163 166 172 178 177 187 187 183 201 215 210 201 207 225 203 199 271 236 282 282 289 284 263 226 272 290 309 322 338 349 350
220 249 248 246 248 253 265 311 333 355 347 352 347 30 54 78 114 158 165 170 174 179 166 163 196 205 220 206 202 197 206 180 200 222 239 294 264 272 279 286 236 244 260 285 297 309 324 342 344
235 263 264 247 242 262 274 293 348 344 348 356 353 3 101 115 118 161 174 177 177 182 185 184 198 207 191 206 205 222 234 237 225 244 276 270 262 263 282 291 240 239 256 278 289 303 326 337 339
236 256 254 234 231 218 278 288 327 340 348 4 6 9 125 138 167 168 178 175 175 172 179 195 203 207 209 217 235 237 243 251 246 239 252 248 266 277 295 278 268 255 258 272 289 296 315 325 323
249 239 235 225 225 266 280 335 285 325 336 13 12 6 319 153 143 179 193 191 176 182 184 188 204 214 223 237 245 238 243 243 257 245 251 250 272 290 299 290 283 271 264 268 284 301 314 310 312
215 201 220 194 81 6 244 315 263 305 276 348 17 29 345 200 164 170 194 195 190 203 218 201 207 213 229 235 236 243 247 240 254 244 255 276 289 297 302 287 293 277 265 271 276 291 298 300 304
192 191 207 189 187 187 325 300 301 238 299 58 21 32 47 318 218 212 207 208 215 219 225 219 220 221 233 241 255 252 262 260 263 250 260 272 291 289 290 284 280 270 276 270 273 276 285 293 296
196 198 196 192 247 265 226 188 307 277 289 248 71 350 2 65 56 225 224 224 222 226 231 237 238 232 235 243 249 253 257 253 255 250 251 252 270 271 281 281 275 249 269 273 276 278 280 286 307
197 186 187 197 235 265 249 264 256 260 293 314 265 12 295 350 51 100 96 193 236 235 230 235 241 241 241 241 241 239 237 239 244 251 253 254 251 267 279 285 274 248 254 272 281 277 277 286 298
180 185 177 202 192 214 207 267 260 258 274 286 286 311 203 243 259 267 250 250 195 216 237 239 238 242 241 239 242 245 244 245 249 252 255 253 257 263 319 285 275 257 261 271 278 282 280 288 289
174 191 213 212 221 219 218 241 266 254 259 265 264 221 223 236 230 268 252 243 275 236 189 227 236 239 243 245 245 246 247 247 246 249 254 255 253 244 221 268 264 256 264 271 284 294 294 300 299
180 192 214 209 218 215 211 208 229 228 237 254 255 235 209 233 230 254 240 236 247 246 253 260 220 234 237 241 246 243 239 238 240 245 252 254 243 235 236 244 246 245 259 272 279 290 297 302 307
188 200 206 210 210 211 207 224 235 244 241 248 236 233 237 238 234 231 247 226 236 244 249 272 277 251 254 252 240 233 227 227 228 231 238 251 251 236 231 232 249 260 266 269 274 283 288 294 303
201 214 218 222 228 222 210 229 239 248 253 248 244 242 244 240 229 229 228 244 242 252 259 265 261 286 279 277 268 264 235 223 224 223 227 239 251 245 244 250 254 262 265 267 275 282 289 300 319
Height
11024 11026 11026 11027 11026 11024 11024 11025 11025 11025 11026 11025 11024 11025 11026 11027 11027 11027 11028 11030 11030 11032 11032 11030 11032 11034 11034 11034 11033 11032 11033 11033 11032 11029 11027 11024 11023 11022 11019 11016 11013 11012 11008 11006 11003 11000 10998 10995 10992
11024 11025 11025 11027 11026 11024 11022 11022 11023 11024 11024 11023 11022 11022 11023 11023 11023 11024 11026 11026 11027 11029 11028 11029 11031 11034 11035 11035 11035 11034 11036 11034 11033 11031 11029 11026 11025 11024 11021 11019 11017 11013 11009 11008 11006 11002 11000 10998 10996
11021 11021 11024 11024 11023 11023 11022 11021 11021 11021 11021 11020 11018 11018 11019 11020 11020 11021 11022 11023 11023 11023 11025 11027 11029 11032 11035 11036 11036 11036 11036 11035 11035 11033 11031 11029 11028 11027 11024 11022 11019 11017 11013 11010 11008 11004 11001 11000 10999
11021 11020 11022 11021 11022 11023 11022 11021 11019 11018 11017 11016 11014 11015 11014 11014 11016 11018 11018 11018 11020 11021 11023 11027 11028 11031 11035 11036 11036 11036 11036 11034 11034 11032 11033 11032 11030 11029 11027 11025 11023 11020 11016 11013 11011 11008 11006 11004 11002
11026 11024 11023 11020 11020 11020 11019 11018 11016 11015 11013 11011 11009 11009 11006 11006 11006 11008 11011 11014 11017 11021 11021 11025 11027 11030 11033 11035 11036 11036 11037 11034 11033 11032 11033 11033 11031 11030 11030 11028 11025 11024 11020 11017 11015 11011 11007 11005 11003
11027 11018 11020 11022 11018 11017 11017 11016 11012 11010 11008 11007 11002 11001 10999 10998 10998 11000 11003 11007 11011 11016 11018 11023 11026 11029 11031 11034 11034 11035 11036 11033 11034 11033 11034 11036 11034 11032 11032 11029 11027 11026 11024 11021 11017 11013 11010 11008 11006
11020 11009 11009 11019 11017 11016 11015 11012 11008 11005 11001 10999 10997 10995 10992 10989 10989 10992 10995 11000 11005 11010 11014 11019 11023 11026 11029 11033 11033 11034 11035 11035 11036 11035 11035 11039 11037 11035 11032 11031 11029 11028 11026 11024 11020 11016 11012 11010 11008
11013 11008 11008 11017 11015 11013 11012 11008 11004 11001 10997 10995 10992 10990 10984 10978 10978 10982 10987 10992 11000 11004 11009 11013 11019 11021 11025 11028 11030 11031 11033 11036 11037 11037 11037 11038 11036 11035 11031 11031 11032 11032 11028 11025 11023 11020 11016 11012 11008
11020 11016 11016 11016 11013 11010 11008 11004 11000 10997 10992 10987 10985 10980 10973 10966 10967 10971 10978 10986 10994 10999 11006 11010 11015 11018 11023 11026 11028 11030 11033 11036 11038 11039 11039 11037 11037 11036 11033 11030 11033 11033 11030 11028 11025 11022 11019 11016 11011
11022 11019 11016 11015 11010 11008 11005 11001 10998 10994 10989 10984 10977 10968 10958 10954 10954 10959 10969 10978 10988 10995 11002 11007 11010 11015 11020 11023 11026 11030 11033 11036 11038 11040 11040 11038 11039 11041 11040 11035 11033 11033 11032 11029 11026 11024 11022 11019 11015
11019 11012 11011 11009 11007 11006 11004 11001 10997 10991 10986 10979 10968 10958 10947 10943 10946 10952 10962 10976 10983 10990 10997 11003 11008 11013 11017 11022 11026 11030 11033 11036 11037 11039 11039 11039 11038 11043 11039 11036 11034 11034 11033 11031 11028 11026 11024 11021 11019
11009 11008 11007 11006 11004 11003 11003 10999 10994 10988 10983 10973 10960 10951 10941 10937 10938 10946 10957 10971 10979 10985 10993 10999 11007 11012 11017 11021 11026 11029 11031 11034 11037 11039 11039 11039 11039 11042 11037 11035 11034 11035 11033 11031 11028 11027 11025 11024 11022
11009 11003 11003 11002 11002 11003 11002 10997 10993 10986 10978 10967 10958 10949 10939 10937 10938 10944 10954 10964 10976 10984 10990 10998 11005 11010 11015 11019 11024 11027 11030 11033 11036 11039 11040 11041 11045 11042 11039 11037 11036 11035 11033 11031 11029 11028 11027 11025 11024
11005 11004 11003 11002 11003 11001 10997 10993 10987 10985 10976 10966 10957 10951 10945 10942 10944 10948 10955 10965 10974 10980 10989 10996 11002 11007 11011 11016 11021 11025 11029 11032 11035 11037 11040 11042 11039 11038 11038 11037 11037 11035 11032 11030 11029 11029 11028 11028 11026
10996 10997 11001 11004 11001 11000 10996 10992 10986 10980 10976 10967 10959 10954 10949 10948 10950 10953 10956 10964 10973 10980 10988 10996 11001 11004 11009 11013 11019 11023 11027 11030 11034 11039 11042 11044 11044 11039 11037 11037 11036 11034 11031 11030 11029 11028 11028 11029 11027
10991 10996 10999 11002 10997 10999 10997 10993 10986 10983 10978 10970 10963 10959 10955 10955 10955 10958 10962 10967 10975 10983 10990 10996 11001 11005 11009 11013 11017 11022 11026 11032 11037 11041 11041 11042 11042 11043 11036 11034 11034 11033 11030 11028 11028 11028 11028 11028 11028
10987 10993 10997 10998 10994 10998 10999 10994 10988 10981 10981 10974 10967 10963 10961 10960 10962 10963 10965 10972 10978 10984 10993 10996 11000 11005 11009 11013 11018 11022 11027 11033 11038 11038 11030 11024 11033 11040 11037 11033 11032 11030 11030 11027 11028 11028 11027 11026 11026
10983 10989 10996 10995 10993 10996 10994 10990 10988 10981 10982 10978 10973 10968 10968 10967 10967 10970 10971 10974 10980 10986 10992 10994 10999 11005 11009 11013 11017 11021 11025 11029 11034 11033 11021 11020 11026 11037 11036 11031 11028 11028 11027 11027 11027 11027 11025 11026 11025
10984 10983 10989 10994 10995 10994 10988 10987 10985 10986 10984 10981 10976 10973 10972 10974 10973 10974 10976 10980 10984 10988 10994 10996 11000 11005 11009 11012 11016 11019 11022 11027 11033 11031 11027 11024 11029 11034 11032 11028 11024 11024 11025 11027 11026 11025 11025 11025 11023
10981 10983 10985 10993 10997 10999 10993 10990 10989 10990 10987 10983 10979 10977 10977 10977 10978 10977 10979 10984 10986 10990 10995 10997 11002 11005 11009 11012 11014 11017 11019 11022 11027 11032 11030 11030 11030 11029 11028 11026 11024 11024 11024 11024 11024 11023 11023 11023 11021
10977 10980 10984 10987 10993 10996 10995 10995 10993 10992 10990 10984 10982 10981 10982 10981 10982 10982 10983 10986 10990 10992 10995 10999 11003 11006 11008 11011 11013 11015 11016 11020 11023 11025 11026 11025 11027 11027 11026 11026 11025 11023 11023 11023 11023 11023 11022 11021 11019
10970 10978 10982 10984 10990 10991 10991 10993 10992 10991 10988 10990 10986 10984 10985 10986 10985 10987 10989 10991 10992 10993 10995 10999 11001 11004 11007 11009 11012 11013 11014 11017 11020 11022 11024 11027 11028 11027 11026 11024 11024 11023 11023 11023 11021 11019 11019 11017 11016
10966 10974 10980 10985 10987 10991 10985 10989 10989 10990 10990 10989 10989 10989 10989 10989 10989 10991 10993 10994 10995 10996 10995 10996 10998 11002 11004 11005 11007 11010 11012 11014 11016 11019 11023 11031 11031 11026 11021 11019 11019 11020 11020 11019 11019 11018 11016 11015 11014
10962 10972 10982 10983 10982 10988 10992 10991 10993 10994 10991 10991 10991 10993 10992 10993 10993 10993 10994 10996 10996 10996 10996 10996 10996 10998 10999 11001 11003 11005 11008 11011 11013 11017 11021 11024 11007 11012 11020 11015 11014 11011 11014 11016 11018 11017 11015 11013 11012
10965 10971 10977 10979 10982 10987 10994 10991 10994 10995 10993 10990 10992 10993 10996 10997 10996 10996 10994 10995 10996 10996 10995 10995 10995 10996 10996 10997 10998 11001 11003 11006 11009 11012 11014 11014 11018 11024 11028 11020 11014 11011 11009 11012 11014 11016 11016 11013 11010
10963 10972 10966 10972 10983 10982 10985 10980 10980 10983 10986 10991 10992 10995 10998 10998 10996 10997 10995 10995 10994 10993 10993 10993 10993 10993 10994 10995 10995 10996 10998 11001 11004 11007 11004 11006 11012 11031 11032 11023 11020 11014 11008 11007 11011 11013 11015 11012 11010
10951 10960 10956 10958 10966 10973 10980 10972 10967 10974 10980 10988 10992 10995 10998 10996 10991 10997 10996 10994 10993 10994 10993 10991 10989 10989 10988 10988 10987 10989 10991 10994 10997 10999 10996 10998 11007 11021 11016 11003 11008 11012 11009 11005 11009 11010 11012 11010 11007
10949 10945 10947 10956 10964 10969 10971 10973 10964 10966 10973 10982 10990 10992 10986 10987 10992 10996 10992 10993 10992 10993 10993 10990 10988 10986 10985 10984 10982 10982 10983 10986 10989 10991 10990 10989 11000 11007 10994 10993 11003 11008 11005 11005 11008 11010 11010 11009 11007
10945 10941 10944 10949 10954 10961 10963 10959 10961 10963 10970 10976 10981 10988 10987 10985 10989 10989 10988 10990 10991 10993 10992 10990 10988 10985 10984 10983 10982 10981 10982 10983 10986 10987 10986 10984 10992 11002 11006 11008 11008 11006 11004 11003 11003 11005 11006 11006 11004
10937 10941 10945 10949 10951 10954 10965 10963 10962 10965 10971 10975 10975 10976 10981 10981 10981 10984 10986 10988 10990 10991 10990 10988 10986 10986 10984 10983 10982 10983 10982 10982 10984 10986 10987 10986 10986 10992 10995 10998 10999 10998 10998 10995 10997 10997 10998 10998 10998